Rockport, TX

9:09 AM CDT on May 24, 2017 (GMT -0500)
Aransas County

Weather History for KRKP - February, 2013

Change the Weather History Date:

Monday, February 18, 2013

  Actual Average Record
Temperature  
Mean Temperature 68 °F -  
Max Temperature 73 °F 65 °F 86 °F (1986)
Min Temperature 64 °F 50 °F 33 °F (1979)
Cooling Degree Days 4    
Growing Degree Days 18 (Base 50)    
Moisture  
Dew Point 62 °F    
Average Humidity 80    
Maximum Humidity 90    
Minimum Humidity 71    
Precipitation  
Precipitation 0.00 in - - ()
Sea Level Pressure  
Sea Level Pressure 29.95 in    
Wind  
Wind Speed 11 mph (South)    
Max Wind Speed 16 mph    
Max Gust Speed 28 mph    
Visibility 9 miles    
Events      
Averages and records for this station are not official NWS values.
T = Trace of Precipitation, MM = Missing Value Source: NWS Daily Summary

Daily Weather History Graph

Daily Weather History Graph

Search for Another Location

Airport or City:

Trip Planner

Search our weather history database for the weather conditions in past years. The results will help you decide how hot, cold, wet, or windy it might be!

Date:

Astronomy

Feb. 18, 2013 Rise Set
Actual Time 7:03 AM CST 6:21 PM CST
Civil Twilight 6:39 AM CST 6:45 PM CST
Nautical Twilight 6:11 AM CST 7:12 PM CST
Astronomical Twilight 5:44 AM CST 7:40 PM CST
Moon 12:22 PM CST (2/18) 1:30 AM CST (2/18)
Length of Visible Light 12h 06m
Length of Day
11h 18m
First Quarter, 58% of the Moon is Illuminated
Feb 18
First Quarter
Feb 25
Full
Mar 4
Last Quarter
Mar 11
New
Mar 19
First Quarter

Hourly Weather History & Observations

Time (CST) Temp. Dew Point Humidity Pressure Visibility Wind Dir Wind Speed Gust Speed Precip Events Conditions
12:53 AM 64.9 °F 57.9 °F 78% 30.01 in 10.0 mi SSE 12.7 mph 17.3 mph N/A   Overcast
1:53 AM 66.0 °F 57.9 °F 75% 30.00 in 10.0 mi SSE 12.7 mph 19.6 mph N/A   Overcast
2:53 AM 66.0 °F 59.0 °F 78% 29.97 in 10.0 mi SSE 11.5 mph 20.7 mph N/A   Overcast
3:53 AM 66.0 °F 59.0 °F 78% 29.95 in 10.0 mi SSE 9.2 mph 23.0 mph N/A   Overcast
4:53 AM 66.0 °F 60.1 °F 81% 29.94 in 10.0 mi SSE 12.7 mph 20.7 mph N/A   Overcast
5:53 AM 66.0 °F 61.0 °F 84% 29.94 in 9.0 mi SSE 13.8 mph 19.6 mph N/A   Overcast
6:53 AM 66.0 °F 61.0 °F 84% 29.94 in 9.0 mi SSE 8.1 mph 18.4 mph N/A   Overcast
7:53 AM 66.9 °F 62.1 °F 84% 29.94 in 8.0 mi SSE 10.4 mph 19.6 mph N/A   Overcast
8:53 AM 68.0 °F 63.0 °F 84% 29.95 in 8.0 mi SSE 9.2 mph 17.3 mph N/A   Overcast
9:53 AM 69.1 °F 62.1 °F 78% 29.96 in 8.0 mi South 10.4 mph 17.3 mph N/A   Overcast
10:38 AM 69.8 °F 62.6 °F 78% 29.96 in 8.0 mi South 8.1 mph 18.4 mph N/A   Overcast
10:53 AM 69.1 °F 63.0 °F 81% 29.97 in 8.0 mi SSE 10.4 mph 17.3 mph N/A   Overcast
11:53 AM 69.1 °F 63.0 °F 81% 29.98 in 8.0 mi South 8.1 mph - N/A   Overcast
12:53 PM 70.0 °F 63.0 °F 78% 29.95 in 8.0 mi South 9.2 mph 16.1 mph 0.00 in   Overcast
1:53 PM 73.0 °F 64.0 °F 73% 29.92 in 9.0 mi South 11.5 mph 19.6 mph 0.00 in   Overcast
2:53 PM 73.0 °F 64.0 °F 73% 29.89 in 9.0 mi South 13.8 mph 23.0 mph N/A   Overcast
3:53 PM 73.0 °F 63.0 °F 71% 29.87 in 9.0 mi South 13.8 mph 27.6 mph N/A   Clear
4:53 PM 71.1 °F 62.1 °F 73% 29.87 in 9.0 mi South 16.1 mph 25.3 mph N/A   Clear
5:53 PM 69.1 °F 62.1 °F 78% 29.90 in 9.0 mi South 9.2 mph 17.3 mph N/A   Clear
6:53 PM 66.9 °F 62.1 °F 84% 29.91 in 10.0 mi South 10.4 mph 17.3 mph N/A   Clear
7:53 PM 66.9 °F 62.1 °F 84% 29.94 in 9.0 mi South 9.2 mph - N/A   Clear
8:53 PM 66.9 °F 63.0 °F 87% 29.98 in 9.0 mi South 4.6 mph - N/A   Clear
9:53 PM 66.9 °F 63.0 °F 87% 29.99 in 9.0 mi South 5.8 mph - N/A   Clear
10:53 PM 66.9 °F 63.0 °F 87% 30.00 in 9.0 mi Variable 6.9 mph 16.1 mph N/A   Clear
11:53 PM 66.0 °F 63.0 °F 90% 30.00 in 8.0 mi SSW 6.9 mph - N/A   Clear